Regional Weather Roundup
Issued by NWS Upton, NY

Current Version | Previous Version | Text Only | Print | Product List | Glossary On
Versions: 1 2 3 4 5 6 7 8 9 10 11 12 13 14 15 16 17 18 19 20 21 22 23 24 25 26 27 28 29 30 31 32 33 34 35 36 37 38 39 40 41 42 43 44 45 46 47 48 49 50
110 ASUS41 KOKX 220708 RWROKX REGIONAL WEATHER ROUNDUP NATIONAL WEATHER SERVICE NEW YORK NY 200 AM EST SUN JAN 22 2017 NOTE: "FAIR" INDICATES FEW OR NO CLOUDS BELOW 12,000 FEET WITH NO SIGNIFICANT WEATHER AND/OR OBSTRUCTIONS TO VISIBILITY. NYZ071-072-176-178-NJZ106-104-220800- NEW YORK CITY METRO AREA CITY SKY/WX TMP DP RH WIND PRES REMARKS Central Park CLOUDY 44 44 100 W3 29.78F FOG Wall St Helipt CLOUDY 44 43 96 W3 29.78F LaGuardia APRT FOG 47 45 93 S5 29.75F VSB 1 Kennedy INTL FOG 43 43 100 SW5 29.78F VSB 1/8 Breezy Point N/A 41 N/A N/A SW1 N/A Newark/Liberty CLOUDY 44 44 100 S3 29.76F FOG Teterboro CLOUDY 46 44 93 S5 29.76F FOG $$ NYZ177-179-078>081-220800- LONG ISLAND NEW YORK CITY SKY/WX TMP DP RH WIND PRES REMARKS Jones Beach N/A 41 N/A N/A W5 N/A Matinecock PT N/A 45 N/A N/A SW10 N/A Farmingdale FOG 44 43 96 SW7 29.78R VSB 1/2 MacArthur/ISP FOG 43 43 100 S3 29.77S VSB 1/4 Shirley FOG 42 42 100 S5 29.77F VSB 1/4 Westhampton FOG 42 42 100 S3 29.79S VSB 1/4 Southampton NOT AVBL Bridgehampton NOT AVBL East Hampton FOG 39 39 99 CALM 29.78R VSB 1/2 Montauk N/A 41 41 100 SW3 29.79S $$ NYZ052-065-067-220800- HUDSON VALLEY CITY SKY/WX TMP DP RH WIND PRES REMARKS White Plains FOG 44 43 96 CALM 29.74F VSB 1/4 Newburgh FOG 41 41 100 CALM 29.76F VSB 1/2 Montgomery CLOUDY 42 41 96 SW3 29.73F FOG Poughkeepsie CLOUDY 42 41 96 VRB5 29.74F FOG Albany CLOUDY 38 35 89 CALM 29.75S $$ NJZ001-105-106-008-010-013-015-019>022-104-220800- NEW JERSEY CITY SKY/WX TMP DP RH WIND PRES REMARKS Newark/Liberty CLOUDY 44 44 100 S3 29.76F FOG Teterboro CLOUDY 46 44 93 S5 29.76F FOG Caldwell FOG 44 44 100 CALM 29.77S VSB 3/4 Somerville FOG 44 43 96 CALM 29.75S VSB 3/4 Linden FOG 44 43 99 CALM 29.77F VSB 3/4 Sussex CLOUDY 42 42 100 CALM 29.74F FOG Andover N/A 41 41 100 CALM 29.74F Trenton FOG 44 44 100 NE3 29.75F VSB 1/4 Millville FOG 45 45 100 CALM 29.77R VSB 3/4 Atlantic City CLOUDY 45 43 93 E3 29.76F FOG Wrightstown FOG 45 44 99 CALM 29.74R VSB 3/4 Toms River FOG 45 45 100 SE3 29.77F VSB 1 Belmar FOG 44 44 100 NE3 29.76F VSB 1/2 $$ PAZ047>061-062-071-220800- EASTERN PENNSYLVANIA CITY SKY/WX TMP DP RH WIND PRES REMARKS Philadelphia FOG 45 44 97 S3 29.77S VSB 1/2 Allentown FOG 43 40 89 NE5 29.74F VSB 1/4 Scranton FOG 43 43 100 CALM 29.72F VSB 1/4 $$ CTZ002-004>006-009-010-012-RIZ004-006-007-MAZ004-011-015-220800- SOUTHERN NEW ENGLAND IN CT CITY SKY/WX TMP DP RH WIND PRES REMARKS Bradley INTL FOG 38 38 100 CALM 29.75S VSB 1/2 Hartford PTCLDY 39 39 100 S3 29.76S FOG Danbury CLOUDY 40 38 93 SW6 29.77S FOG Wtrbury/Oxford CLOUDY 41 37 87 CALM 29.76S VSB 1/2 Bridgeport FOG 44 42 93 CALM 29.77S VSB 1/4 Meriden FOG 40 38 93 S3 29.76F VSB 1/4 New Haven FOG 41 41 100 CALM 29.77S VSB 1/4 Chester FOG 39 39 100 VRB6 29.76S VSB 1/4 WCI 35 Groton FOG 40 40 100 W3 29.76F VSB 1/4 Wilimantic FOG 37 36 96 CALM 29.77F VSB 1/4 IN RI CITY SKY/WX TMP DP RH WIND PRES REMARKS Providence FOG 36 36 100 CALM 29.77R VSB 1 Block Island NOT AVBL Westerly FOG 40 38 93 VRB5 29.77S VSB 1/2 IN MA CITY SKY/WX TMP DP RH WIND PRES REMARKS Boston CLOUDY 40 40 100 S3 29.75S Worcester CLOUDY 46 40 79 W13 29.73R Westfield FOG 35 35 100 NE3 29.75S VSB 3/4 Provincetown PTCLDY 37 37 100 SW5 29.76S WCI 33 Nantucket FOG 40 40 100 W6 29.77S VSB 1/4 $$ ANZ330-335-338-340-345-350-353-355-220800- COASTAL MARINE OBSERVATIONS STATION/POSITION TIME SKY/WX TEMP WIND PRES VSBY WAVE AIR SEA DIR/SP/G HT/PER (UTC) (F) (DEG/KT/KT) (MB) (MI) (FT/S) NY HARB ENTRANCE 0550 44 44 230/ 4/ 6 1008.4 3/12 20 S FIRE ISLAND 0550 44 45 220/ 8/ 10 1008.3 3/ 9 GREAT SOUTH BAY NOT AVBL 23 SSW MONTAUK P 0550 44 47 250/ 12/ 16 1008.7 4/13 15 E BARNEGAT LI 0630 47 N/A 4/11 HUDSON CANYON 0550 49 51 1008.7 4/11 KINGS POINT 0642 40 1007.7 EXECUTION ROCKS 0645 43 190/ 6/ 10 N/A CENTRAL LI SOUND 0630 40 240/ 4/ 6 N/A 0 EASTERN LI SOUND NOT AVBL ROBBINS REEF 0636 260/ 2/ 3 1008.2 $$ >>>>>>>>>>>>>>>>>>>>>>>>>>>> KEY <<<<<<<<<<<<<<<<<<<<<<<<<<< > < > SKY/WX - Sky Condition/Present Weather < > TMP - Temperature in Fahrenheit < > DP - Dew Point in Fahrenheit < > RH - Relative Humidity in Percent < > WIND - Direction (from) and Speed in MPH < > PRES - Mean Sea Level Pressure (inches of Hg) < > WCI - Wind Chill Index < > VSB - VISIBILITY IN MILES < > HX - HEAT INDEX < > TC - TEMPERATURE IN CELSIUS < > VRB - VARIABLE WIND DIRECTION < > < >>>>>>>>>>>>>>>>>>>>>>>>>>>> KEY <<<<<<<<<<<<<<<<<<<<<<<<<<<

USA.gov is the U.S. government's official web portal to all federal, state and local government web resources and services.